Time,TemperatureF,DewpointF,PressureIn,WindDirection,WindDirectionDegrees,WindSpeedMPH,WindSpeedGustMPH,Humidity,HourlyPrecipIn,Conditions,Clouds,dailyrainin,SolarRadiationWatts/m^2,SoftwareType,DateUTC
2013-03-05 00:03:00,22.7,21.0,29.94,SSE,165,7.0,9.0,93,0.00,,SKC,0.00,0.00,VWS V14.00,2013-03-05 06:03:00,
2013-03-05 00:08:00,22.7,21.0,29.94,SE,141,6.0,12.0,93,0.00,,SKC,0.00,0.00,VWS V14.00,2013-03-05 06:08:00,
2013-03-05 00:13:00,22.7,21.0,29.94,SSE,155,7.0,11.0,93,0.00,,SKC,0.00,0.00,VWS V14.00,2013-03-05 06:13:00,
2013-03-05 00:18:00,22.7,21.0,29.94,SE,126,6.0,12.0,93,0.00,,SKC,0.00,0.00,VWS V14.00,2013-03-05 06:18:00,
2013-03-05 00:23:00,22.7,21.0,29.94,SSE,149,9.0,12.0,93,0.00,,SKC,0.00,0.00,VWS V14.00,2013-03-05 06:23:00,
2013-03-05 00:28:00,22.7,21.0,29.93,SE,142,6.0,11.0,93,0.00,,SKC,0.00,0.00,VWS V14.00,2013-03-05 06:28:00,
2013-03-05 00:33:00,22.7,21.0,29.94,SE,145,7.0,12.0,93,0.00,,SKC,0.00,0.00,VWS V14.00,2013-03-05 06:33:00,
2013-03-05 00:38:00,22.7,21.0,29.93,SSE,148,7.0,12.0,93,0.00,,SKC,0.00,0.00,VWS V14.00,2013-03-05 06:38:00,
2013-03-05 00:43:00,22.7,21.0,29.93,SE,144,6.0,12.0,93,0.00,,SKC,0.00,0.00,VWS V14.00,2013-03-05 06:43:00,
2013-03-05 00:48:00,22.7,21.0,29.94,South,176,4.0,10.0,93,0.00,,SKC,0.00,0.00,VWS V14.00,2013-03-05 06:48:00,
2013-03-05 00:53:00,22.7,21.0,29.94,South,186,6.0,9.0,93,0.00,,SKC,0.00,0.00,VWS V14.00,2013-03-05 06:53:00,
2013-03-05 00:58:00,22.7,21.0,29.94,South,170,7.0,10.0,93,0.00,,SKC,0.00,0.00,VWS V14.00,2013-03-05 06:58:00,
2013-03-05 01:03:00,22.7,21.0,29.94,SE,139,4.0,10.0,93,0.00,,SKC,0.00,0.00,VWS V14.00,2013-03-05 07:03:00,
2013-03-05 01:08:00,22.7,21.0,29.94,SE,146,6.0,11.0,93,0.00,,SKC,0.00,0.00,VWS V14.00,2013-03-05 07:08:00,
2013-03-05 01:13:00,22.7,21.0,29.94,SSE,152,4.0,11.0,93,0.00,,SKC,0.00,0.00,VWS V14.00,2013-03-05 07:13:00,
2013-03-05 01:18:00,22.7,21.0,29.94,South,171,6.0,10.0,93,0.00,,SKC,0.00,0.00,VWS V14.00,2013-03-05 07:18:00,
2013-03-05 01:23:00,22.6,20.9,29.94,SE,124,4.0,10.0,93,0.00,,SKC,0.00,0.00,VWS V14.00,2013-03-05 07:23:00,
2013-03-05 01:28:00,22.6,20.9,29.94,SSE,147,7.0,12.0,93,0.00,,SKC,0.00,0.00,VWS V14.00,2013-03-05 07:28:00,
2013-03-05 01:33:00,22.6,20.9,29.95,SE,138,9.0,11.0,93,0.00,,SKC,0.00,0.00,VWS V14.00,2013-03-05 07:33:00,
2013-03-05 01:38:00,22.6,20.9,29.95,SSE,152,5.0,10.0,93,0.00,,SKC,0.00,0.00,VWS V14.00,2013-03-05 07:38:00,
2013-03-05 01:43:00,22.6,20.9,29.95,SSE,167,6.0,7.0,93,0.00,,SKC,0.00,0.00,VWS V14.00,2013-03-05 07:43:00,
2013-03-05 01:48:00,22.6,20.9,29.95,SE,142,5.0,10.0,93,0.00,,SKC,0.00,0.00,VWS V14.00,2013-03-05 07:48:00,
2013-03-05 01:54:00,22.6,20.9,29.95,SSE,155,9.0,10.0,93,0.00,,SKC,0.00,0.00,VWS V14.00,2013-03-05 07:54:00,
2013-03-05 02:01:00,22.6,20.9,29.94,SE,140,6.0,10.0,93,0.00,,SKC,0.00,0.00,VWS V14.00,2013-03-05 08:01:00,
2013-03-05 02:17:00,22.6,20.9,29.94,SSE,161,6.0,10.0,93,0.00,,SKC,0.00,0.00,VWS V14.00,2013-03-05 08:17:00,
2013-03-05 03:17:00,22.5,21.0,29.94,SSE,153,6.0,7.0,94,0.00,,SKC,0.00,0.00,VWS V14.00,2013-03-05 09:17:00,
2013-03-05 04:57:00,22.7,21.2,29.95,SE,142,3.0,5.0,94,0.00,,SKC,0.00,0.00,VWS V14.00,2013-03-05 10:57:00,
2013-03-05 05:02:00,22.8,21.3,29.95,SE,131,0.0,6.0,94,0.00,,SKC,0.00,0.00,VWS V14.00,2013-03-05 11:02:00,
2013-03-05 05:07:00,22.8,21.3,29.95,SE,140,2.0,3.0,94,0.00,,SKC,0.00,0.00,VWS V14.00,2013-03-05 11:07:00,
2013-03-05 05:12:00,22.8,21.3,29.95,SE,128,1.0,4.0,94,0.00,,SKC,0.00,0.00,VWS V14.00,2013-03-05 11:12:00,
2013-03-05 05:17:00,22.8,21.3,29.95,SE,128,1.0,2.0,94,0.00,,SKC,0.00,0.00,VWS V14.00,2013-03-05 11:17:00,
2013-03-05 05:22:00,22.9,21.4,29.96,ESE,105,2.0,4.0,94,0.00,,SKC,0.00,0.00,VWS V14.00,2013-03-05 11:22:00,
2013-03-05 05:27:00,22.9,21.4,29.96,SE,136,1.0,5.0,94,0.00,,SKC,0.00,0.00,VWS V14.00,2013-03-05 11:27:00,
2013-03-05 05:32:00,22.9,21.4,29.97,SE,136,0.0,4.0,94,0.00,,SKC,0.00,0.00,VWS V14.00,2013-03-05 11:32:00,
2013-03-05 05:37:00,22.9,21.4,29.97,SE,127,0.0,2.0,94,0.00,,SKC,0.00,0.00,VWS V14.00,2013-03-05 11:37:00,
2013-03-05 05:42:00,22.9,21.4,29.97,East,86,1.0,5.0,94,0.00,,SKC,0.00,0.00,VWS V14.00,2013-03-05 11:42:00,
2013-03-05 05:47:00,22.9,21.4,29.97,East,80,0.0,2.0,94,0.00,,SKC,0.00,0.00,VWS V14.00,2013-03-05 11:47:00,
2013-03-05 05:52:00,22.9,21.4,29.97,East,98,2.0,4.0,94,0.00,,SKC,0.00,0.00,VWS V14.00,2013-03-05 11:52:00,
2013-03-05 05:57:00,22.9,21.4,29.97,ESE,123,1.0,4.0,94,0.00,,SKC,0.00,0.00,VWS V14.00,2013-03-05 11:57:00,
2013-03-05 06:02:00,22.9,21.4,29.98,ESE,123,0.0,2.0,94,0.00,,SKC,0.00,0.00,VWS V14.00,2013-03-05 12:02:00,
2013-03-05 06:07:00,22.9,21.4,29.98,East,96,1.0,3.0,94,0.00,,SKC,0.00,0.00,VWS V14.00,2013-03-05 12:07:00,
2013-03-05 06:12:00,22.9,21.4,29.98,SE,127,1.0,2.0,94,0.00,,SKC,0.00,0.00,VWS V14.00,2013-03-05 12:12:00,
2013-03-05 06:17:00,22.9,21.4,29.98,SE,126,0.0,2.0,94,0.00,,SKC,0.00,0.00,VWS V14.00,2013-03-05 12:17:00,
2013-03-05 06:22:00,22.9,21.4,29.98,ENE,64,1.0,2.0,94,0.00,,SKC,0.00,0.00,VWS V14.00,2013-03-05 12:22:00,
2013-03-05 06:27:00,22.9,21.4,29.98,ENE,65,0.0,2.0,94,0.00,,SKC,0.00,0.00,VWS V14.00,2013-03-05 12:27:00,
2013-03-05 06:32:00,22.9,21.4,29.99,ESE,118,0.0,2.0,94,0.00,,SKC,0.00,0.00,VWS V14.00,2013-03-05 12:32:00,
2013-03-05 06:37:00,22.9,21.4,29.98,East,90,2.0,2.0,94,0.00,,SKC,0.00,0.00,VWS V14.00,2013-03-05 12:37:00,
2013-03-05 06:43:00,22.9,21.4,29.99,East,90,0.0,2.0,94,0.00,,SKC,0.00,0.00,VWS V14.00,2013-03-05 12:43:00,
2013-03-05 06:48:00,22.9,21.4,29.99,East,90,0.0,2.0,94,0.00,,SKC,0.00,0.00,VWS V14.00,2013-03-05 12:48:00,
2013-03-05 06:53:00,22.9,21.4,29.99,ENE,72,0.0,3.0,94,0.00,,SKC,0.00,0.00,VWS V14.00,2013-03-05 12:53:00,
2013-03-05 06:58:00,22.9,21.4,30.00,ENE,72,0.0,1.0,94,0.00,,SKC,0.00,0.00,VWS V14.00,2013-03-05 12:58:00,
2013-03-05 07:03:00,22.9,21.4,30.00,ENE,72,0.0,1.0,94,0.00,,SKC,0.00,0.00,VWS V14.00,2013-03-05 13:03:00,
2013-03-05 07:08:00,22.9,21.4,30.00,ENE,72,2.0,3.0,94,0.00,,SKC,0.00,5.00,VWS V14.00,2013-03-05 13:08:00,
2013-03-05 07:13:00,22.9,21.4,30.00,ENE,72,0.0,2.0,94,0.00,,SKC,0.00,7.00,VWS V14.00,2013-03-05 13:13:00,
2013-03-05 07:18:00,23.0,21.5,30.00,NE,40,0.0,2.0,94,0.00,,SKC,0.00,9.00,VWS V14.00,2013-03-05 13:18:00,
2013-03-05 07:23:00,23.0,21.5,30.00,NE,40,1.0,1.0,94,0.00,,SKC,0.00,11.00,VWS V14.00,2013-03-05 13:23:00,
2013-03-05 07:28:00,23.0,21.5,30.01,East,96,0.0,2.0,94,0.00,,SKC,0.00,12.00,VWS V14.00,2013-03-05 13:28:00,
2013-03-05 07:33:00,23.0,21.5,30.01,East,96,1.0,2.0,94,0.00,,SKC,0.00,16.00,VWS V14.00,2013-03-05 13:33:00,
2013-03-05 07:38:00,23.1,21.6,30.01,East,96,0.0,5.0,94,0.00,,SKC,0.00,19.00,VWS V14.00,2013-03-05 13:38:00,
2013-03-05 07:43:00,23.1,21.6,30.01,ENE,72,1.0,2.0,94,0.00,,SKC,0.00,23.00,VWS V14.00,2013-03-05 13:43:00,
2013-03-05 07:48:00,23.2,21.7,30.01,NNE,22,0.0,3.0,94,0.00,,SKC,0.00,23.00,VWS V14.00,2013-03-05 13:48:00,
2013-03-05 07:53:00,23.2,21.7,30.01,NNE,23,0.0,2.0,94,0.00,,SKC,0.00,26.00,VWS V14.00,2013-03-05 13:53:00,
2013-03-05 07:58:00,23.3,21.8,30.02,North,360,1.0,5.0,94,0.00,,SKC,0.00,30.00,VWS V14.00,2013-03-05 13:58:00,
2013-03-05 08:03:00,23.3,21.8,30.02,NE,56,3.0,3.0,94,0.00,,SKC,0.00,30.00,VWS V14.00,2013-03-05 14:03:00,
2013-03-05 08:08:00,23.3,21.8,30.02,NE,52,1.0,3.0,94,0.00,,SKC,0.00,30.00,VWS V14.00,2013-03-05 14:08:00,
2013-03-05 08:13:00,23.3,21.8,30.02,NE,52,1.0,1.0,94,0.00,,SKC,0.00,30.00,VWS V14.00,2013-03-05 14:13:00,
2013-03-05 08:18:00,23.3,21.8,30.02,NE,52,1.0,1.0,94,0.00,,SKC,0.00,30.00,VWS V14.00,2013-03-05 14:18:00,
2013-03-05 08:23:00,23.3,21.8,30.03,NE,52,1.0,1.0,94,0.00,,SKC,0.00,30.00,VWS V14.00,2013-03-05 14:23:00,
2013-03-05 08:28:00,23.3,21.8,30.03,NE,52,1.0,1.0,94,0.00,,SKC,0.00,30.00,VWS V14.00,2013-03-05 14:28:00,
2013-03-05 08:33:00,23.3,21.8,30.03,NE,52,1.0,1.0,94,0.00,,SKC,0.00,30.00,VWS V14.00,2013-03-05 14:33:00,
2013-03-05 08:38:00,23.3,21.8,30.03,NE,52,1.0,1.0,94,0.00,,SKC,0.00,30.00,VWS V14.00,2013-03-05 14:38:00,
2013-03-05 08:43:00,23.3,21.8,30.03,NE,52,1.0,1.0,94,0.00,,SKC,0.00,30.00,VWS V14.00,2013-03-05 14:43:00,
2013-03-05 08:48:00,23.3,21.8,30.04,NE,52,1.0,1.0,94,0.00,,SKC,0.00,30.00,VWS V14.00,2013-03-05 14:48:00,
2013-03-05 08:53:00,23.3,21.8,30.04,NE,52,1.0,1.0,94,0.00,,SKC,0.00,30.00,VWS V14.00,2013-03-05 14:53:00,
2013-03-05 08:58:00,23.3,21.8,30.04,NE,52,1.0,1.0,94,0.00,,SKC,0.00,30.00,VWS V14.00,2013-03-05 14:58:00,
2013-03-05 09:03:00,23.3,21.8,30.04,NE,52,1.0,1.0,94,0.00,,SKC,0.00,30.00,VWS V14.00,2013-03-05 15:03:00,
2013-03-05 09:08:00,24.3,22.6,30.04,ENE,59,3.0,3.0,93,0.00,,SKC,0.00,84.00,VWS V14.00,2013-03-05 15:08:00,
2013-03-05 09:13:00,24.5,23.0,30.04,NE,51,2.0,5.0,94,0.00,,SKC,0.00,86.00,VWS V14.00,2013-03-05 15:13:00,
2013-03-05 09:18:00,24.6,23.1,30.05,ENE,66,2.0,3.0,94,0.00,,SKC,0.00,88.00,VWS V14.00,2013-03-05 15:18:00,
2013-03-05 09:23:00,24.7,23.0,30.05,NNE,16,5.0,6.0,93,0.00,,SKC,0.00,93.00,VWS V14.00,2013-03-05 15:23:00,
2013-03-05 09:28:00,24.8,23.1,30.05,NE,44,2.0,5.0,93,0.00,,SKC,0.00,100.00,VWS V14.00,2013-03-05 15:28:00,
2013-03-05 09:33:00,24.9,23.2,30.06,ENE,63,1.0,4.0,93,0.00,,SKC,0.00,102.00,VWS V14.00,2013-03-05 15:33:00,
2013-03-05 09:38:00,25.0,23.3,30.06,NNE,27,4.0,5.0,93,0.00,,SKC,0.00,111.00,VWS V14.00,2013-03-05 15:38:00,
2013-03-05 09:43:00,25.1,23.4,30.06,NE,55,4.0,5.0,93,0.00,,SKC,0.00,118.00,VWS V14.00,2013-03-05 15:43:00,
2013-03-05 09:48:00,25.1,23.4,30.06,NE,48,2.0,9.0,93,0.00,,SKC,0.00,127.00,VWS V14.00,2013-03-05 15:48:00,
2013-03-05 09:53:00,25.3,23.6,30.06,ENE,67,5.0,5.0,93,0.00,,SKC,0.00,127.00,VWS V14.00,2013-03-05 15:53:00,
2013-03-05 09:58:00,25.4,23.7,30.07,ENE,63,2.0,5.0,93,0.00,,SKC,0.00,130.00,VWS V14.00,2013-03-05 15:58:00,
2013-03-05 10:03:00,25.6,23.9,30.07,NE,55,1.0,4.0,93,0.00,,SKC,0.00,125.00,VWS V14.00,2013-03-05 16:03:00,
2013-03-05 10:08:00,25.7,24.0,30.08,ENE,63,3.0,5.0,93,0.00,,SKC,0.00,125.00,VWS V14.00,2013-03-05 16:08:00,
2013-03-05 10:13:00,25.8,23.8,30.08,NE,41,3.0,9.0,92,0.00,,SKC,0.00,123.00,VWS V14.00,2013-03-05 16:13:00,
2013-03-05 10:18:00,25.8,23.8,30.08,ENE,71,3.0,6.0,92,0.00,,SKC,0.00,127.00,VWS V14.00,2013-03-05 16:18:00,
2013-03-05 10:23:00,25.9,23.9,30.08,North,351,3.0,6.0,92,0.00,,SKC,0.00,135.00,VWS V14.00,2013-03-05 16:23:00,
2013-03-05 10:28:00,26.0,24.0,30.09,ENE,69,2.0,6.0,92,0.00,,SKC,0.00,141.00,VWS V14.00,2013-03-05 16:28:00,
2013-03-05 10:33:00,26.0,24.0,30.09,NE,49,2.0,6.0,92,0.00,,SKC,0.00,149.00,VWS V14.00,2013-03-05 16:33:00,
2013-03-05 10:38:00,26.2,24.2,30.09,NE,36,4.0,6.0,92,0.00,,SKC,0.00,149.00,VWS V14.00,2013-03-05 16:38:00,
2013-03-05 10:43:00,26.2,24.2,30.09,NNE,24,3.0,6.0,92,0.00,,SKC,0.00,144.00,VWS V14.00,2013-03-05 16:43:00,
2013-03-05 10:48:00,26.2,24.2,30.09,East,100,1.0,6.0,92,0.00,,SKC,0.00,156.00,VWS V14.00,2013-03-05 16:48:00,
2013-03-05 10:53:00,26.2,24.2,30.09,NE,44,3.0,7.0,92,0.00,,SKC,0.00,172.00,VWS V14.00,2013-03-05 16:53:00,
2013-03-05 10:58:00,26.3,24.3,30.09,East,79,2.0,6.0,92,0.00,,SKC,0.00,172.00,VWS V14.00,2013-03-05 16:58:00,
2013-03-05 11:03:00,26.4,24.4,30.10,NE,45,6.0,6.0,92,0.00,,SKC,0.00,178.00,VWS V14.00,2013-03-05 17:03:00,
2013-03-05 11:08:00,26.5,24.5,30.10,NNE,30,4.0,9.0,92,0.00,,SKC,0.00,188.00,VWS V14.00,2013-03-05 17:08:00,
2013-03-05 11:13:00,26.6,24.6,30.10,East,90,9.0,9.0,92,0.00,,SKC,0.00,214.00,VWS V14.00,2013-03-05 17:13:00,
2013-03-05 11:19:00,26.7,24.7,30.10,NE,38,3.0,10.0,92,0.00,,SKC,0.00,234.00,VWS V14.00,2013-03-05 17:19:00,
2013-03-05 11:24:00,26.7,24.4,30.10,NE,39,1.0,7.0,91,0.00,,SKC,0.00,241.00,VWS V14.00,2013-03-05 17:24:00,
2013-03-05 11:29:00,26.8,24.5,30.10,NE,42,5.0,9.0,91,0.00,,SKC,0.00,250.00,VWS V14.00,2013-03-05 17:29:00,
2013-03-05 11:34:00,26.9,24.6,30.10,NE,54,2.0,6.0,91,0.00,,SKC,0.00,274.00,VWS V14.00,2013-03-05 17:34:00,
2013-03-05 11:39:00,27.1,25.1,30.10,NNE,28,3.0,3.0,92,0.00,,SKC,0.00,292.00,VWS V14.00,2013-03-05 17:39:00,
2013-03-05 11:44:00,27.4,25.4,30.10,NE,35,4.0,6.0,92,0.00,,SKC,0.00,285.00,VWS V14.00,2013-03-05 17:44:00,
2013-03-05 11:49:00,27.6,25.3,30.11,ENE,69,2.0,5.0,91,0.00,,SKC,0.00,302.00,VWS V14.00,2013-03-05 17:49:00,
2013-03-05 11:54:00,27.8,25.5,30.10,ENE,68,2.0,6.0,91,0.00,,SKC,0.00,320.00,VWS V14.00,2013-03-05 17:54:00,
2013-03-05 11:59:00,27.9,25.6,30.11,North,9,5.0,6.0,91,0.00,,SKC,0.00,332.00,VWS V14.00,2013-03-05 17:59:00,
2013-03-05 12:04:00,27.9,25.6,30.11,East,84,2.0,10.0,91,0.00,,SKC,0.00,403.00,VWS V14.00,2013-03-05 18:04:00,
2013-03-05 12:09:00,28.1,25.5,30.11,NE,51,1.0,4.0,90,0.01,,SKC,0.01,411.00,VWS V14.00,2013-03-05 18:09:00,
2013-03-05 12:14:00,28.3,26.0,30.11,ENE,57,2.0,6.0,91,0.01,,SKC,0.01,431.00,VWS V14.00,2013-03-05 18:14:00,
2013-03-05 12:19:00,28.5,26.0,30.11,NE,54,2.0,5.0,90,0.01,,SKC,0.01,448.00,VWS V14.00,2013-03-05 18:19:00,
2013-03-05 12:24:00,28.7,26.1,30.11,NE,42,4.0,6.0,90,0.01,,SKC,0.01,464.00,VWS V14.00,2013-03-05 18:24:00,
2013-03-05 12:29:00,28.8,26.2,30.11,NE,51,2.0,4.0,90,0.01,,SKC,0.01,485.00,VWS V14.00,2013-03-05 18:29:00,
2013-03-05 12:34:00,29.2,26.6,30.11,NE,42,4.0,4.0,90,0.02,,SKC,0.02,531.00,VWS V14.00,2013-03-05 18:34:00,
2013-03-05 12:39:00,29.3,26.7,30.11,NNE,32,3.0,5.0,90,0.02,,SKC,0.02,512.00,VWS V14.00,2013-03-05 18:39:00,
2013-03-05 12:44:00,29.5,26.9,30.11,NE,42,3.0,6.0,90,0.02,,SKC,0.02,462.00,VWS V14.00,2013-03-05 18:44:00,
2013-03-05 12:49:00,29.6,27.0,30.11,NE,48,3.0,4.0,90,0.03,,SKC,0.03,457.00,VWS V14.00,2013-03-05 18:49:00,
2013-03-05 12:54:00,29.7,27.1,30.11,NE,53,2.0,6.0,90,0.03,,SKC,0.03,373.00,VWS V14.00,2013-03-05 18:54:00,
2013-03-05 12:59:00,29.6,26.8,30.12,ENE,67,3.0,6.0,89,0.03,,SKC,0.03,374.00,VWS V14.00,2013-03-05 18:59:00,
2013-03-05 13:05:00,29.7,26.9,30.12,NE,36,6.0,7.0,89,0.03,,SKC,0.03,408.00,VWS V14.00,2013-03-05 19:05:00,
2013-03-05 13:10:00,29.7,26.9,30.12,ENE,66,5.0,7.0,89,0.03,,SKC,0.04,582.00,VWS V14.00,2013-03-05 19:10:00,
2013-03-05 13:15:00,30.1,27.3,30.12,NE,48,3.0,7.0,89,0.03,,SKC,0.04,680.00,VWS V14.00,2013-03-05 19:15:00,
2013-03-05 13:20:00,30.6,27.5,30.12,NE,37,3.0,6.0,88,0.03,,SKC,0.04,608.00,VWS V14.00,2013-03-05 19:20:00,
2013-03-05 13:25:00,30.6,27.5,30.12,NE,44,3.0,5.0,88,0.03,,SKC,0.04,487.00,VWS V14.00,2013-03-05 19:25:00,
2013-03-05 13:30:00,30.4,27.3,30.12,NNE,28,4.0,5.0,88,0.04,,SKC,0.05,316.00,VWS V14.00,2013-03-05 19:30:00,
2013-03-05 13:35:00,30.1,27.0,30.13,ENE,57,3.0,6.0,88,0.03,,SKC,0.05,439.00,VWS V14.00,2013-03-05 19:35:00,
2013-03-05 13:40:00,30.1,27.3,30.13,NE,46,2.0,3.0,89,0.03,,SKC,0.05,362.00,VWS V14.00,2013-03-05 19:40:00,
2013-03-05 13:45:00,30.0,27.2,30.13,NE,46,3.0,6.0,89,0.04,,SKC,0.06,468.00,VWS V14.00,2013-03-05 19:45:00,
2013-03-05 13:50:00,29.9,26.8,30.13,NNE,31,4.0,6.0,88,0.04,,SKC,0.06,396.00,VWS V14.00,2013-03-05 19:50:00,
2013-03-05 13:55:00,29.8,26.7,30.13,ENE,61,3.0,6.0,88,0.03,,SKC,0.06,598.00,VWS V14.00,2013-03-05 19:55:00,
2013-03-05 14:00:00,29.7,26.9,30.14,NE,38,2.0,6.0,89,0.04,,SKC,0.07,452.00,VWS V14.00,2013-03-05 20:00:00,
2013-03-05 14:05:00,29.8,27.0,30.14,NNE,24,3.0,5.0,89,0.04,,SKC,0.07,476.00,VWS V14.00,2013-03-05 20:05:00,
2013-03-05 14:10:00,29.8,27.0,30.14,NE,46,3.0,9.0,89,0.04,,SKC,0.07,387.00,VWS V14.00,2013-03-05 20:10:00,
2013-03-05 14:15:00,29.8,27.0,30.14,NE,42,4.0,7.0,89,0.03,,SKC,0.07,427.00,VWS V14.00,2013-03-05 20:15:00,
2013-03-05 14:20:00,29.7,26.9,30.14,North,5,3.0,4.0,89,0.04,,SKC,0.08,329.00,VWS V14.00,2013-03-05 20:20:00,
2013-03-05 14:25:00,29.6,26.8,30.14,NNE,21,3.0,5.0,89,0.04,,SKC,0.08,295.00,VWS V14.00,2013-03-05 20:25:00,
2013-03-05 14:30:00,29.3,26.5,30.14,NNE,25,4.0,6.0,89,0.03,,SKC,0.08,401.00,VWS V14.00,2013-03-05 20:30:00,
2013-03-05 14:35:00,29.2,26.4,30.15,NNE,22,3.0,7.0,89,0.03,,SKC,0.08,489.00,VWS V14.00,2013-03-05 20:35:00,
2013-03-05 14:40:00,29.3,26.5,30.15,NNE,32,4.0,6.0,89,0.04,,SKC,0.09,526.00,VWS V14.00,2013-03-05 20:40:00,
2013-03-05 14:45:00,29.6,26.8,30.15,NNE,26,2.0,5.0,89,0.04,,SKC,0.09,367.00,VWS V14.00,2013-03-05 20:45:00,
2013-03-05 14:50:00,29.6,26.5,30.15,NNE,30,5.0,10.0,88,0.03,,SKC,0.09,318.00,VWS V14.00,2013-03-05 20:50:00,
2013-03-05 14:55:00,29.6,26.8,30.15,NNE,29,3.0,5.0,89,0.03,,SKC,0.09,399.00,VWS V14.00,2013-03-05 20:55:00,
2013-03-05 15:00:00,29.6,26.8,30.15,NNE,21,3.0,8.0,89,0.03,,SKC,0.09,257.00,VWS V14.00,2013-03-05 21:00:00,
2013-03-05 15:05:00,29.3,26.5,30.16,NNE,24,2.0,5.0,89,0.02,,SKC,0.09,193.00,VWS V14.00,2013-03-05 21:05:00,
2013-03-05 15:10:00,29.0,26.2,30.16,NE,38,3.0,6.0,89,0.02,,SKC,0.09,146.00,VWS V14.00,2013-03-05 21:10:00,
2013-03-05 15:15:00,28.7,25.9,30.16,NNE,28,3.0,6.0,89,0.03,,SKC,0.10,257.00,VWS V14.00,2013-03-05 21:15:00,
2013-03-05 15:20:00,28.6,26.0,30.16,North,11,3.0,9.0,90,0.02,,SKC,0.10,271.00,VWS V14.00,2013-03-05 21:20:00,
2013-03-05 15:25:00,28.6,26.0,30.17,NNE,13,3.0,5.0,90,0.02,,SKC,0.10,200.00,VWS V14.00,2013-03-05 21:25:00,
2013-03-05 15:31:00,28.7,26.1,30.17,NNE,26,3.0,5.0,90,0.02,,SKC,0.10,540.00,VWS V14.00,2013-03-05 21:31:00,
2013-03-05 15:36:00,28.9,26.3,30.17,NE,50,4.0,7.0,90,0.02,,SKC,0.10,334.00,VWS V14.00,2013-03-05 21:36:00,
2013-03-05 15:41:00,28.9,26.3,30.17,NNE,18,4.0,5.0,90,0.02,,SKC,0.10,227.00,VWS V14.00,2013-03-05 21:41:00,
2013-03-05 15:46:00,28.8,26.2,30.17,North,5,3.0,4.0,90,0.01,,SKC,0.10,181.00,VWS V14.00,2013-03-05 21:46:00,
2013-03-05 15:51:00,28.7,26.1,30.17,NNE,15,3.0,4.0,90,0.01,,SKC,0.10,172.00,VWS V14.00,2013-03-05 21:51:00,
2013-03-05 15:56:00,28.8,26.2,30.17,NNE,27,3.0,6.0,90,0.01,,SKC,0.10,316.00,VWS V14.00,2013-03-05 21:56:00,
2013-03-05 16:01:00,28.8,26.5,30.17,NNE,27,3.0,4.0,91,0.01,,SKC,0.10,230.00,VWS V14.00,2013-03-05 22:01:00,
2013-03-05 16:06:00,28.9,26.6,30.17,NNE,24,2.0,4.0,91,0.01,,SKC,0.10,202.00,VWS V14.00,2013-03-05 22:06:00,
2013-03-05 16:11:00,28.9,26.3,30.17,NNE,32,1.0,5.0,90,0.01,,SKC,0.10,171.00,VWS V14.00,2013-03-05 22:11:00,
2013-03-05 16:16:00,28.9,26.3,30.18,NNE,17,2.0,4.0,90,0.01,,SKC,0.10,171.00,VWS V14.00,2013-03-05 22:16:00,
2013-03-05 16:21:00,28.9,26.3,30.18,North,360,5.0,5.0,90,0.00,,SKC,0.10,160.00,VWS V14.00,2013-03-05 22:21:00,
2013-03-05 16:26:00,28.8,26.0,30.18,NNE,30,4.0,6.0,89,0.00,,SKC,0.10,153.00,VWS V14.00,2013-03-05 22:26:00,
2013-03-05 16:31:00,28.6,25.8,30.18,NNE,27,5.0,6.0,89,0.00,,SKC,0.10,162.00,VWS V14.00,2013-03-05 22:31:00,
2013-03-05 16:36:00,28.5,25.7,30.19,North,5,5.0,12.0,89,0.00,,SKC,0.10,137.00,VWS V14.00,2013-03-05 22:36:00,
2013-03-05 16:41:00,28.4,25.6,30.19,NE,35,4.0,6.0,89,0.00,,SKC,0.10,111.00,VWS V14.00,2013-03-05 22:41:00,
2013-03-05 16:46:00,28.3,25.8,30.19,NNE,20,5.0,6.0,90,0.00,,SKC,0.10,132.00,VWS V14.00,2013-03-05 22:46:00,
2013-03-05 16:51:00,28.2,25.6,30.19,NNE,29,3.0,5.0,90,0.00,,SKC,0.10,109.00,VWS V14.00,2013-03-05 22:51:00,
2013-03-05 16:56:00,28.1,25.5,30.19,NE,34,6.0,7.0,90,0.00,,SKC,0.10,81.00,VWS V14.00,2013-03-05 22:56:00,
2013-03-05 17:01:00,28.0,25.5,30.19,North,9,5.0,6.0,90,0.00,,SKC,0.10,76.00,VWS V14.00,2013-03-05 23:01:00,
2013-03-05 17:06:00,27.9,25.4,30.20,ENE,67,3.0,6.0,90,0.00,,SKC,0.10,79.00,VWS V14.00,2013-03-05 23:06:00,
2013-03-05 17:11:00,27.8,25.2,30.20,NNE,26,3.0,5.0,90,0.00,,SKC,0.10,70.00,VWS V14.00,2013-03-05 23:11:00,
2013-03-05 17:16:00,27.6,25.1,30.20,NE,42,4.0,6.0,90,0.00,,SKC,0.10,70.00,VWS V14.00,2013-03-05 23:16:00,
2013-03-05 17:21:00,27.5,25.2,30.20,NNE,32,3.0,5.0,91,0.00,,SKC,0.10,47.00,VWS V14.00,2013-03-05 23:21:00,
2013-03-05 17:26:00,27.2,24.7,30.21,NE,40,3.0,6.0,90,0.00,,SKC,0.10,39.00,VWS V14.00,2013-03-05 23:26:00,
2013-03-05 17:31:00,27.1,24.6,30.21,NE,34,3.0,6.0,90,0.00,,SKC,0.10,33.00,VWS V14.00,2013-03-05 23:31:00,
2013-03-05 17:36:00,26.9,24.4,30.21,NE,44,5.0,7.0,90,0.00,,SKC,0.10,30.00,VWS V14.00,2013-03-05 23:36:00,
2013-03-05 17:41:00,26.7,24.2,30.22,NNE,26,1.0,8.0,90,0.00,,SKC,0.10,33.00,VWS V14.00,2013-03-05 23:41:00,
2013-03-05 17:46:00,26.5,24.0,30.22,ENE,69,2.0,5.0,90,0.00,,SKC,0.10,25.00,VWS V14.00,2013-03-05 23:46:00,
2013-03-05 17:51:00,26.2,23.7,30.22,NNE,29,2.0,4.0,90,0.00,,SKC,0.10,18.00,VWS V14.00,2013-03-05 23:51:00,
2013-03-05 17:56:00,26.0,23.5,30.23,NNE,29,3.0,3.0,90,0.00,,SKC,0.10,14.00,VWS V14.00,2013-03-05 23:56:00,
2013-03-05 18:02:00,25.6,22.8,30.23,NNW,347,2.0,3.0,89,0.00,,SKC,0.10,12.00,VWS V14.00,2013-03-06 00:02:00,
2013-03-05 18:07:00,25.1,22.3,30.23,North,351,0.0,2.0,89,0.00,,SKC,0.10,9.00,VWS V14.00,2013-03-06 00:07:00,
2013-03-05 18:12:00,24.8,22.0,30.23,North,351,0.0,0.0,89,0.00,,SKC,0.10,7.00,VWS V14.00,2013-03-06 00:12:00,
2013-03-05 18:17:00,24.5,21.7,30.24,North,351,0.0,0.0,89,0.00,,SKC,0.10,0.00,VWS V14.00,2013-03-06 00:17:00,
2013-03-05 18:22:00,24.1,21.3,30.24,North,351,0.0,0.0,89,0.00,,SKC,0.10,0.00,VWS V14.00,2013-03-06 00:22:00,
2013-03-05 18:27:00,23.8,21.0,30.24,North,351,0.0,0.0,89,0.00,,SKC,0.10,0.00,VWS V14.00,2013-03-06 00:27:00,
2013-03-05 18:32:00,23.4,20.6,30.24,North,351,0.0,1.0,89,0.00,,SKC,0.10,0.00,VWS V14.00,2013-03-06 00:32:00,
2013-03-05 18:37:00,22.9,20.1,30.25,North,351,0.0,0.0,89,0.00,,SKC,0.10,0.00,VWS V14.00,2013-03-06 00:37:00,
2013-03-05 18:42:00,22.6,20.1,30.25,North,351,0.0,0.0,90,0.00,,SKC,0.10,0.00,VWS V14.00,2013-03-06 00:42:00,
2013-03-05 18:47:00,22.4,19.9,30.25,North,351,0.0,0.0,90,0.00,,SKC,0.10,0.00,VWS V14.00,2013-03-06 00:47:00,
2013-03-05 18:52:00,22.3,19.8,30.25,North,351,0.0,0.0,90,0.00,,SKC,0.10,0.00,VWS V14.00,2013-03-06 00:52:00,
2013-03-05 18:57:00,21.8,19.3,30.25,North,351,0.0,0.0,90,0.00,,SKC,0.10,0.00,VWS V14.00,2013-03-06 00:57:00,
2013-03-05 19:02:00,21.5,19.0,30.25,North,351,0.0,0.0,90,0.00,,SKC,0.10,0.00,VWS V14.00,2013-03-06 01:02:00,
2013-03-05 19:07:00,21.1,18.6,30.25,North,351,0.0,0.0,90,0.00,,SKC,0.10,0.00,VWS V14.00,2013-03-06 01:07:00,
2013-03-05 19:12:00,20.8,18.3,30.25,North,351,0.0,0.0,90,0.00,,SKC,0.10,0.00,VWS V14.00,2013-03-06 01:12:00,
2013-03-05 19:17:00,20.6,18.1,30.26,North,351,0.0,0.0,90,0.00,,SKC,0.10,0.00,VWS V14.00,2013-03-06 01:17:00,
2013-03-05 19:22:00,20.3,17.8,30.25,North,351,0.0,0.0,90,0.00,,SKC,0.10,0.00,VWS V14.00,2013-03-06 01:22:00,
2013-03-05 19:27:00,20.0,17.5,30.25,North,351,0.0,0.0,90,0.00,,SKC,0.10,0.00,VWS V14.00,2013-03-06 01:27:00,
2013-03-05 19:32:00,19.7,17.2,30.26,North,351,0.0,0.0,90,0.00,,SKC,0.10,0.00,VWS V14.00,2013-03-06 01:32:00,
2013-03-05 19:37:00,19.5,17.3,30.26,North,351,0.0,0.0,91,0.00,,SKC,0.10,0.00,VWS V14.00,2013-03-06 01:37:00,
2013-03-05 19:42:00,19.4,17.2,30.26,North,351,0.0,0.0,91,0.00,,SKC,0.10,0.00,VWS V14.00,2013-03-06 01:42:00,
2013-03-05 19:47:00,19.5,17.3,30.26,North,351,0.0,0.0,91,0.00,,SKC,0.10,0.00,VWS V14.00,2013-03-06 01:47:00,
2013-03-05 19:52:00,19.7,17.8,30.27,North,351,0.0,0.0,92,0.00,,SKC,0.10,0.00,VWS V14.00,2013-03-06 01:52:00,
2013-03-05 19:57:00,19.9,18.0,30.27,North,351,0.0,0.0,92,0.00,,SKC,0.10,0.00,VWS V14.00,2013-03-06 01:57:00,
2013-03-05 20:02:00,20.1,18.1,30.27,North,351,0.0,0.0,92,0.00,,SKC,0.10,0.00,VWS V14.00,2013-03-06 02:02:00,
2013-03-05 20:07:00,20.1,18.1,30.27,North,351,0.0,0.0,92,0.00,,SKC,0.10,0.00,VWS V14.00,2013-03-06 02:07:00,
2013-03-05 20:12:00,20.2,18.2,30.28,North,351,0.0,0.0,92,0.00,,SKC,0.10,0.00,VWS V14.00,2013-03-06 02:12:00,
2013-03-05 20:17:00,20.2,18.2,30.28,North,351,0.0,0.0,92,0.00,,SKC,0.10,0.00,VWS V14.00,2013-03-06 02:17:00,
2013-03-05 20:22:00,20.4,18.7,30.28,North,351,1.0,2.0,93,0.00,,SKC,0.10,0.00,VWS V14.00,2013-03-06 02:22:00,
2013-03-05 20:27:00,20.8,19.1,30.28,North,351,1.0,2.0,93,0.00,,SKC,0.10,0.00,VWS V14.00,2013-03-06 02:27:00,
2013-03-05 20:32:00,21.2,19.5,30.28,North,351,1.0,2.0,93,0.00,,SKC,0.10,0.00,VWS V14.00,2013-03-06 02:32:00,
2013-03-05 20:37:00,21.4,19.7,30.28,North,351,2.0,2.0,93,0.00,,SKC,0.10,0.00,VWS V14.00,2013-03-06 02:37:00,
2013-03-05 20:42:00,21.6,20.1,30.28,North,351,0.0,2.0,94,0.00,,SKC,0.10,0.00,VWS V14.00,2013-03-06 02:42:00,
2013-03-05 20:48:00,21.8,20.1,30.29,North,351,0.0,2.0,93,0.00,,SKC,0.10,0.00,VWS V14.00,2013-03-06 02:48:00,
2013-03-05 20:53:00,21.8,20.1,30.29,NW,325,0.0,2.0,93,0.00,,SKC,0.10,0.00,VWS V14.00,2013-03-06 02:53:00,
2013-03-05 20:58:00,21.8,20.1,30.29,NW,325,0.0,1.0,93,0.00,,SKC,0.10,0.00,VWS V14.00,2013-03-06 02:58:00,
2013-03-05 21:03:00,21.7,20.0,30.29,NW,325,1.0,2.0,93,0.00,,SKC,0.10,0.00,VWS V14.00,2013-03-06 03:03:00,
2013-03-05 21:08:00,21.7,20.0,30.28,NNW,329,0.0,2.0,93,0.00,,SKC,0.10,0.00,VWS V14.00,2013-03-06 03:08:00,
2013-03-05 21:13:00,21.8,20.1,30.29,NNW,329,1.0,2.0,93,0.00,,SKC,0.10,0.00,VWS V14.00,2013-03-06 03:13:00,
2013-03-05 21:18:00,21.9,20.2,30.29,NNE,17,4.0,4.0,93,0.00,,SKC,0.10,0.00,VWS V14.00,2013-03-06 03:18:00,
2013-03-05 21:23:00,22.2,20.5,30.29,NNE,17,2.0,4.0,93,0.00,,SKC,0.10,0.00,VWS V14.00,2013-03-06 03:23:00,
2013-03-05 21:28:00,22.4,20.7,30.29,NNE,26,2.0,4.0,93,0.00,,SKC,0.10,0.00,VWS V14.00,2013-03-06 03:28:00,
2013-03-05 21:33:00,22.5,20.8,30.29,NNE,26,1.0,4.0,93,0.00,,SKC,0.10,0.00,VWS V14.00,2013-03-06 03:33:00,
2013-03-05 21:38:00,22.6,20.9,30.29,NNE,22,2.0,5.0,93,0.00,,SKC,0.10,0.00,VWS V14.00,2013-03-06 03:38:00,
2013-03-05 21:43:00,22.6,20.9,30.30,NNE,23,2.0,5.0,93,0.00,,SKC,0.10,0.00,VWS V14.00,2013-03-06 03:43:00,
2013-03-05 21:48:00,22.6,20.9,30.29,NNE,24,1.0,3.0,93,0.00,,SKC,0.10,0.00,VWS V14.00,2013-03-06 03:48:00,
2013-03-05 21:53:00,22.6,20.6,30.30,NNE,27,0.0,3.0,92,0.00,,SKC,0.10,0.00,VWS V14.00,2013-03-06 03:53:00,
2013-03-05 21:58:00,22.5,20.5,30.30,NNE,13,1.0,3.0,92,0.00,,SKC,0.10,0.00,VWS V14.00,2013-03-06 03:58:00,
2013-03-05 22:03:00,22.5,20.5,30.30,NNE,14,1.0,4.0,92,0.00,,SKC,0.10,0.00,VWS V14.00,2013-03-06 04:03:00,
2013-03-05 22:08:00,22.4,20.4,30.31,NNE,14,1.0,3.0,92,0.00,,SKC,0.10,0.00,VWS V14.00,2013-03-06 04:08:00,
2013-03-05 22:13:00,22.4,20.4,30.31,NNE,14,1.0,1.0,92,0.00,,SKC,0.10,0.00,VWS V14.00,2013-03-06 04:13:00,
2013-03-05 22:18:00,22.2,20.2,30.31,NNE,14,0.0,2.0,92,0.00,,SKC,0.10,0.00,VWS V14.00,2013-03-06 04:18:00,
2013-03-05 22:23:00,22.2,20.2,30.31,NNE,14,0.0,2.0,92,0.00,,SKC,0.10,0.00,VWS V14.00,2013-03-06 04:23:00,
2013-03-05 22:28:00,22.1,20.1,30.31,NNE,14,0.0,0.0,92,0.00,,SKC,0.10,0.00,VWS V14.00,2013-03-06 04:28:00,
2013-03-05 22:33:00,22.1,20.1,30.31,NNE,14,0.0,0.0,92,0.00,,SKC,0.10,0.00,VWS V14.00,2013-03-06 04:33:00,
2013-03-05 22:38:00,22.0,20.0,30.31,NNE,14,0.0,0.0,92,0.00,,SKC,0.10,0.00,VWS V14.00,2013-03-06 04:38:00,
2013-03-05 22:43:00,22.0,20.0,30.31,NNE,14,0.0,0.0,92,0.00,,SKC,0.10,0.00,VWS V14.00,2013-03-06 04:43:00,
2013-03-05 22:48:00,21.9,19.9,30.31,NNE,14,0.0,0.0,92,0.00,,SKC,0.10,0.00,VWS V14.00,2013-03-06 04:48:00,
2013-03-05 22:54:00,21.9,19.9,30.31,NNE,14,0.0,0.0,92,0.00,,SKC,0.10,0.00,VWS V14.00,2013-03-06 04:54:00,
2013-03-05 22:59:00,21.8,19.8,30.31,NNE,14,0.0,0.0,92,0.00,,SKC,0.10,0.00,VWS V14.00,2013-03-06 04:59:00,
2013-03-05 23:00:00,21.8,19.8,30.31,NNE,14,0.0,0.0,92,0.00,,SKC,0.10,0.00,VWS V14.00,2013-03-06 05:00:00,
2013-03-05 23:02:00,21.7,19.7,30.31,NNE,14,0.0,0.0,92,0.00,,SKC,0.10,0.00,VWS V14.00,2013-03-06 05:02:00,
2013-03-05 23:03:00,21.7,19.7,30.31,NE,35,1.0,1.0,92,0.00,,SKC,0.10,0.00,VWS V14.00,2013-03-06 05:03:00,
2013-03-05 23:07:00,21.6,19.6,30.32,NE,35,2.0,3.0,92,0.00,,SKC,0.10,0.00,VWS V14.00,2013-03-06 05:07:00,
2013-03-05 23:12:00,21.5,19.5,30.32,NE,35,2.0,2.0,92,0.00,,SKC,0.10,0.00,VWS V14.00,2013-03-06 05:12:00,
2013-03-05 23:17:00,21.4,19.4,30.32,NE,37,3.0,3.0,92,0.00,,SKC,0.10,0.00,VWS V14.00,2013-03-06 05:17:00,
2013-03-05 23:22:00,21.3,19.3,30.32,NNE,23,2.0,3.0,92,0.00,,SKC,0.10,0.00,VWS V14.00,2013-03-06 05:22:00,
2013-03-05 23:27:00,21.3,19.3,30.31,NNE,23,1.0,2.0,92,0.00,,SKC,0.10,0.00,VWS V14.00,2013-03-06 05:27:00,
2013-03-05 23:32:00,21.2,19.0,30.32,North,355,0.0,2.0,91,0.00,,SKC,0.10,0.00,VWS V14.00,2013-03-06 05:32:00,
2013-03-05 23:37:00,21.1,18.9,30.32,NNE,15,0.0,2.0,91,0.00,,SKC,0.10,0.00,VWS V14.00,2013-03-06 05:37:00,
2013-03-05 23:42:00,21.0,18.8,30.32,NNE,15,0.0,1.0,91,0.00,,SKC,0.10,0.00,VWS V14.00,2013-03-06 05:42:00,
2013-03-05 23:47:00,20.9,19.0,30.33,NNE,15,0.0,2.0,92,0.00,,SKC,0.10,0.00,VWS V14.00,2013-03-06 05:47:00,
2013-03-05 23:52:00,20.8,18.9,30.33,NNE,15,0.0,1.0,92,0.00,,SKC,0.10,0.00,VWS V14.00,2013-03-06 05:52:00,
2013-03-05 23:57:00,20.7,18.8,30.33,NNW,332,0.0,4.0,92,0.00,,SKC,0.10,0.00,VWS V14.00,2013-03-06 05:57:00,